EN

Hourly Weather Abuzere

Today, 27 November, Friday

Time Temperature Precipitation Wind Pressure Humidity
00:00 -1°C° 0 mm 3 mps 744 mmHg 88%
01:00 0°C° 0 mm 3 mps 743 mmHg 88%
02:00 +1°C° 0 mm 2 mps 743 mmHg 89%
03:00 0°C° 0 mm 3 mps 743 mmHg 89%
04:00 -1°C° 0 mm 3 mps 742 mmHg 90%
05:00 -2°C° 0 mm 4 mps 742 mmHg 90%
06:00 -1°C° 0.5 mm 4 mps 741 mmHg 92%
07:00 -1°C° 0.5 mm 4 mps 741 mmHg 94%
08:00 +1°C° 0.5 mm 3 mps 740 mmHg 96%
09:00 0°C° 0.5 mm 4 mps 740 mmHg 95%
10:00 +1°C° 0.5 mm 4 mps 740 mmHg 95%
11:00 +1°C° 0.5 mm 4 mps 740 mmHg 94%
12:00 +1°C° 0.7 mm 4 mps 740 mmHg 95%
13:00 +1°C° 0.7 mm 4 mps 740 mmHg 96%
14:00 +1°C° 0.7 mm 4 mps 740 mmHg 96%
15:00 +1°C° 0.3 mm 4 mps 740 mmHg 91%
16:00 0°C° 0.3 mm 4 mps 740 mmHg 87%
17:00 -1°C° 0.3 mm 4 mps 741 mmHg 82%
18:00 0°C° 0 mm 3 mps 741 mmHg 85%
19:00 -1°C° 0 mm 3 mps 741 mmHg 88%
20:00 -1°C° 0 mm 2 mps 742 mmHg 91%
21:00 -1°C° 0 mm 2 mps 742 mmHg 92%
22:00 -1°C° 0 mm 2 mps 742 mmHg 92%
23:00 -2°C° 0 mm 2 mps 743 mmHg 93%

Tomorrow, 28 November, Saturday

Time Temperature Precipitation Wind Pressure Humidity
00:00 -2°C° 0 mm 2 mps 743 mmHg 92%
01:00 -2°C° 0 mm 2 mps 744 mmHg 92%
02:00 -2°C° 0 mm 2 mps 744 mmHg 91%
03:00 -1°C° 0 mm 2 mps 744 mmHg 90%
04:00 -1°C° 0 mm 2 mps 744 mmHg 88%
05:00 -1°C° 0 mm 2 mps 744 mmHg 86%
06:00 +1°C° 0 mm 1 mps 745 mmHg 86%
07:00 +1°C° 0 mm 1 mps 745 mmHg 86%
08:00 +1°C° 0 mm 1 mps 746 mmHg 87%
09:00 +1°C° 0 mm 1 mps 746 mmHg 84%
10:00 +1°C° 0 mm 1 mps 746 mmHg 81%
11:00 +2°C° 0 mm 1 mps 746 mmHg 78%
12:00 +2°C° 0 mm 1 mps 747 mmHg 76%
13:00 +2°C° 0 mm 1 mps 747 mmHg 75%
14:00 +2°C° 0 mm 1 mps 747 mmHg 74%
15:00 +1°C° 0 mm 1 mps 747 mmHg 78%
16:00 -1°C° 0 mm 2 mps 747 mmHg 82%
17:00 -1°C° 0 mm 2 mps 748 mmHg 86%
18:00 -1°C° 0 mm 2 mps 748 mmHg 89%
19:00 -1°C° 0 mm 2 mps 748 mmHg 92%
20:00 -2°C° 0 mm 3 mps 749 mmHg 94%
21:00 -1°C° 0 mm 3 mps 749 mmHg 94%
22:00 -1°C° 0 mm 3 mps 749 mmHg 94%
23:00 -1°C° 0 mm 3 mps 749 mmHg 93%

Day after tomorrow, 29 November, Sunday

Time Temperature Precipitation Wind Pressure Humidity
00:00 -1°C° 0 mm 3 mps 750 mmHg 94%
01:00 -1°C° 0 mm 3 mps 750 mmHg 94%
02:00 -1°C° 0 mm 3 mps 750 mmHg 95%
03:00 -1°C° 0.1 mm 3 mps 750 mmHg 94%
04:00 -1°C° 0.1 mm 3 mps 750 mmHg 93%
05:00 -1°C° 0.1 mm 3 mps 750 mmHg 93%
06:00 -1°C° 0.1 mm 3 mps 750 mmHg 94%
07:00 -1°C° 0.1 mm 3 mps 750 mmHg 95%
08:00 -1°C° 0.1 mm 3 mps 750 mmHg 96%
09:00 -1°C° 0.1 mm 3 mps 750 mmHg 94%
10:00 -1°C° 0.1 mm 3 mps 749 mmHg 92%
11:00 -2°C° 0.1 mm 4 mps 749 mmHg 90%
12:00 -2°C° 0.1 mm 4 mps 749 mmHg 91%
13:00 -2°C° 0.1 mm 4 mps 749 mmHg 93%
14:00 -2°C° 0.1 mm 4 mps 748 mmHg 95%
15:00 -2°C° 0.4 mm 4 mps 748 mmHg 96%
16:00 -1°C° 0.4 mm 3 mps 747 mmHg 97%
17:00 -1°C° 0.4 mm 3 mps 747 mmHg 97%
18:00 -1°C° 0.4 mm 3 mps 747 mmHg 98%
19:00 -1°C° 0.4 mm 3 mps 747 mmHg 98%
20:00 -1°C° 0.4 mm 2 mps 747 mmHg 98%
21:00 -1°C° 0.2 mm 2 mps 747 mmHg 98%
22:00 -1°C° 0.2 mm 2 mps 747 mmHg 98%
23:00 +1°C° 0.2 mm 1 mps 747 mmHg 98%

30 November, Monday

Time Temperature Precipitation Wind Pressure Humidity
00:00 -2°C° 0 mm 2 mps 747 mmHg 97%
01:00 -2°C° 0 mm 2 mps 748 mmHg 97%
02:00 -2°C° 0 mm 2 mps 748 mmHg 97%
03:00 -2°C° 0.1 mm 2 mps 748 mmHg 97%
04:00 -2°C° 0.1 mm 2 mps 748 mmHg 97%
05:00 -2°C° 0.1 mm 2 mps 748 mmHg 96%
06:00 -2°C° 0.2 mm 3 mps 749 mmHg 96%
07:00 -2°C° 0.2 mm 3 mps 749 mmHg 96%
08:00 -2°C° 0.2 mm 3 mps 750 mmHg 96%
09:00 -2°C° 0 mm 3 mps 750 mmHg 94%
10:00 -2°C° 0 mm 4 mps 750 mmHg 92%
11:00 -2°C° 0 mm 4 mps 751 mmHg 89%
12:00 -2°C° 0 mm 4 mps 751 mmHg 88%
13:00 -2°C° 0 mm 5 mps 751 mmHg 86%
14:00 -2°C° 0 mm 5 mps 751 mmHg 85%
15:00 -4°C° 0 mm 5 mps 752 mmHg 87%
16:00 -3°C° 0 mm 4 mps 752 mmHg 88%
17:00 -3°C° 0 mm 4 mps 752 mmHg 90%
18:00 -3°C° 0 mm 4 mps 752 mmHg 90%
19:00 -4°C° 0 mm 4 mps 753 mmHg 90%
20:00 -4°C° 0 mm 4 mps 753 mmHg 90%
21:00 -4°C° 0 mm 4 mps 753 mmHg 91%
22:00 -5°C° 0 mm 3 mps 754 mmHg 93%
23:00 -5°C° 0 mm 3 mps 754 mmHg 94%

1 December, Tuesday

Time Temperature Precipitation Wind Pressure Humidity
00:00 -5°C° 0 mm 3 mps 754 mmHg 93%
01:00 -5°C° 0 mm 3 mps 754 mmHg 92%
02:00 -4°C° 0 mm 3 mps 754 mmHg 91%
03:00 -5°C° 0 mm 3 mps 754 mmHg 91%
04:00 -5°C° 0 mm 3 mps 754 mmHg 91%
05:00 -5°C° 0 mm 3 mps 754 mmHg 92%
06:00 -6°C° 0 mm 3 mps 754 mmHg 91%
07:00 -7°C° 0 mm 4 mps 754 mmHg 91%
08:00 -7°C° 0 mm 4 mps 754 mmHg 90%
09:00 -5°C° 0 mm 4 mps 754 mmHg 88%
10:00 -5°C° 0 mm 4 mps 753 mmHg 86%
11:00 -4°C° 0 mm 4 mps 753 mmHg 84%
12:00 -4°C° 0 mm 4 mps 753 mmHg 84%
13:00 -4°C° 0 mm 4 mps 753 mmHg 84%
14:00 -4°C° 0 mm 4 mps 752 mmHg 84%
15:00 -4°C° 0 mm 4 mps 752 mmHg 86%
16:00 -5°C° 0 mm 3 mps 752 mmHg 88%
17:00 -5°C° 0 mm 3 mps 752 mmHg 90%
18:00 -5°C° 0 mm 3 mps 752 mmHg 90%
19:00 -5°C° 0 mm 3 mps 752 mmHg 89%
20:00 -5°C° 0 mm 3 mps 752 mmHg 89%
21:00 -5°C° 0 mm 3 mps 752 mmHg 89%
22:00 -5°C° 0 mm 3 mps 752 mmHg 89%
23:00 -5°C° 0 mm 3 mps 752 mmHg 90%

2 December, Wednesday

Time Temperature Precipitation Wind Pressure Humidity
00:00 -5°C° 0 mm 2 mps 752 mmHg 90%
01:00 -5°C° 0 mm 2 mps 752 mmHg 91%
02:00 -5°C° 0 mm 2 mps 752 mmHg 91%
03:00 -5°C° 0 mm 2 mps 752 mmHg 91%
04:00 -5°C° 0 mm 2 mps 751 mmHg 91%
05:00 -5°C° 0 mm 2 mps 751 mmHg 91%
06:00 -5°C° 0 mm 2 mps 752 mmHg 91%
07:00 -4°C° 0 mm 1 mps 752 mmHg 91%
08:00 -4°C° 0 mm 1 mps 752 mmHg 91%
09:00 -3°C° 0 mm 1 mps 752 mmHg 88%
10:00 -2°C° 0 mm 1 mps 752 mmHg 86%
11:00 -2°C° 0 mm 1 mps 753 mmHg 83%
12:00 -2°C° 0 mm 1 mps 753 mmHg 83%
13:00 -1°C° 0 mm 1 mps 753 mmHg 83%
14:00 -1°C° 0 mm 1 mps 753 mmHg 84%
15:00 -2°C° 0 mm 1 mps 753 mmHg 85%
16:00 -3°C° 0 mm 1 mps 753 mmHg 87%
17:00 -3°C° 0 mm 1 mps 753 mmHg 89%
18:00 -3°C° 0 mm 1 mps 754 mmHg 90%
19:00 -3°C° 0 mm 1 mps 754 mmHg 91%
20:00 -3°C° 0 mm 1 mps 754 mmHg 92%
21:00 -3°C° 0 mm 1 mps 755 mmHg 92%
22:00 -2°C° 0 mm 1 mps 755 mmHg 93%
23:00 -2°C° 0 mm 1 mps 755 mmHg 93%
Show more

We Need Your Consent

Meteoprog and our Service Providers may store and access personal data such as cookies, device identifiers or other similar technologies on your device and process such data to personalise content and ads, as well as provide social media features and to analyse the traffic.

  • Store and/or access information on your device

    Cookies, device identifiers or other information can be stored or accessed on your device for the purposes indicated above.

  • Personalised ads and content, ad and content measurement, audience insights, and products development

    Ads and content can be personalised based on a profile. More data can be added to better personalise ads and content. Ad and content performance can be measured. Insights about the audience who saw the ads and content can be derived. Such data can be used to develop or improve user’s experience, systems and software.

By clicking ‘I Agree’ you will allow the use of indicated cookies, device identifiers, web beacons or other similar technologies. Your settings can be changed in the browser on your device.

For certain purposes, legitimate interests may be relied on, rather than consent. You can read more about this in our Privacy and Cookie Policy.